Starlink 31331

operational
NORAD ID: 58946 Int'l Des: 2024-027 Owner: SPXS Country: US Constellation: starlink
LEOCIRCULAR

Über Starlink 31331

Beschreibung wird geladen...

Live-Position

3D-Globus wird geladen...

Nächste Überflüge

Höhenverlauf

Altitude vs Time

uPlot chart will show altitude changes over time

Zweizeiliger Elementsatz

1 58946U 24027R 25354.17442066 -.00000236 00000-0 41785-5 0 9998
2 58946 53.1626 319.0006 0001469 94.1449 265.9720 15.30189797105150
Epoch: 20. Dez. 2025 • Age: 17 hours

Aktueller Status

Höhe 482.3 km
Geschwindigkeit 7.62 km/s
Subsatellitenpunkt -22.76°S, 111.79°W
Startdatum 10. Feb. 2024
Alter 1.8 years
Typ internet

Technische Details

Klassifizierung Payload
Masse 730.00 kg
Trockenmasse 700.00 kg
Gesamtmasse 730.00 kg
Länge 0.30 m
Durchmesser 4.10 m
Spannweite 29.00 m
Form Box + pan
Hersteller SPXS
Bus-Typ Starlink V2M
Phasenstatus In Orbit
Besitzer/Staat SPXS/US

Große Konstellationen

Loading constellations...